TimeCET,TemperatureF,Dew PointF,Humidity,Sea Level PressureIn,VisibilityMPH,Wind Direction,Wind SpeedMPH,Gust SpeedMPH,PrecipitationIn,Events,Conditions,WindDirDegrees,DateUTC
12:00 AM,50.0,39.2,66,30.12,-9999.0,North,5.8,-,N/A,,Clear,350,2012-11-15 23:00:00
12:30 AM,50.0,39.2,66,30.12,-9999.0,NNW,4.6,-,N/A,,Clear,340,2012-11-15 23:30:00
1:00 AM,50,38,54,30.13,12,NNW,6.7,,,,,340,2012-11-16 00:00:00
1:00 AM,50.0,39.2,66,30.12,-9999.0,NNW,5.8,-,N/A,,Clear,340,2012-11-16 00:00:00
1:30 AM,50.0,37.4,62,30.12,-9999.0,Variable,3.5,-,N/A,,Clear,0,2012-11-16 00:30:00
2:00 AM,48.2,37.4,66,30.12,-9999.0,NNW,6.9,-,N/A,,Clear,330,2012-11-16 01:00:00
2:30 AM,48.2,39.2,71,30.12,-9999.0,NNW,6.9,-,N/A,,Clear,330,2012-11-16 01:30:00
3:00 AM,48.2,39.2,71,30.09,-9999.0,NNW,5.8,-,N/A,,Clear,330,2012-11-16 02:00:00
3:30 AM,50.0,39.2,66,30.09,-9999.0,NNW,5.8,-,N/A,,Clear,340,2012-11-16 02:30:00
4:00 AM,51,39,53,30.11,12,NNW,6.7,,,,,340,2012-11-16 03:00:00
4:00 AM,50.0,39.2,66,30.09,-9999.0,NNW,6.9,-,N/A,,Clear,340,2012-11-16 03:00:00
4:30 AM,51.8,39.2,62,30.09,-9999.0,NNW,6.9,-,N/A,,Clear,340,2012-11-16 03:30:00
5:00 AM,50.0,37.4,62,30.09,-9999.0,NNW,6.9,-,N/A,,Clear,340,2012-11-16 04:00:00
5:30 AM,51.8,39.2,62,30.09,-9999.0,NNW,6.9,-,N/A,,Clear,340,2012-11-16 04:30:00
6:00 AM,50.0,37.4,62,30.09,-9999.0,North,6.9,-,N/A,,Unknown,10,2012-11-16 05:00:00
6:30 AM,50.0,39.2,66,30.09,-9999.0,North,6.9,-,N/A,,Clear,360,2012-11-16 05:30:00
7:00 AM,51,38,52,30.12,19,NNW,8.9,,,,Scattered Clouds,340,2012-11-16 06:00:00
7:00 AM,51.8,39.2,62,30.12,-9999.0,NNW,8.1,-,N/A,,Clear,340,2012-11-16 06:00:00
7:30 AM,50.0,39.2,66,30.12,-9999.0,NNW,5.8,-,N/A,,Clear,340,2012-11-16 06:30:00
8:00 AM,51.8,39.2,62,30.12,-9999.0,North,4.6,-,N/A,,Clear,360,2012-11-16 07:00:00
8:30 AM,53.6,41.0,62,30.12,-9999.0,Variable,3.5,-,N/A,,Clear,0,2012-11-16 07:30:00
9:00 AM,55.4,42.8,63,30.12,-9999.0,Variable,3.5,-,N/A,,Clear,0,2012-11-16 08:00:00
9:30 AM,57.2,44.6,63,30.12,-9999.0,Variable,3.5,-,N/A,,Clear,0,2012-11-16 08:30:00
10:00 AM,57,45,54,30.15,19,NNE,2.2,,,,,30,2012-11-16 09:00:00
10:00 AM,57.2,44.6,63,30.15,-9999.0,Variable,2.3,-,N/A,,Clear,0,2012-11-16 09:00:00
10:30 AM,59.0,44.6,59,30.15,-9999.0,Variable,3.5,-,N/A,,Clear,0,2012-11-16 09:30:00
11:00 AM,59.0,42.8,55,30.15,-9999.0,Variable,2.3,-,N/A,,Clear,0,2012-11-16 10:00:00
11:30 AM,59.0,42.8,55,30.12,-9999.0,Variable,3.5,-,N/A,,Clear,0,2012-11-16 10:30:00
12:00 PM,59.0,42.8,55,30.12,-9999.0,Variable,3.5,-,N/A,,Clear,0,2012-11-16 11:00:00
12:30 PM,60.8,42.8,52,30.12,-9999.0,Variable,3.5,-,N/A,,Clear,0,2012-11-16 11:30:00
1:00 PM,61,43,41,30.14,19,ENE,2.2,,,,Mostly Cloudy,60,2012-11-16 12:00:00
1:00 PM,60.8,42.8,52,30.12,-9999.0,Variable,2.3,-,N/A,,Clear,0,2012-11-16 12:00:00
1:30 PM,60.8,44.6,55,30.12,-9999.0,Variable,1.2,-,N/A,,Clear,0,2012-11-16 12:30:00
2:00 PM,60.8,44.6,55,30.12,-9999.0,Variable,1.2,-,N/A,,Clear,0,2012-11-16 13:00:00
2:30 PM,60.8,44.6,55,30.12,-9999.0,Calm,Calm,-,N/A,,Clear,0,2012-11-16 13:30:00
3:00 PM,60.8,46.4,59,30.12,-9999.0,Variable,1.2,-,N/A,,Clear,0,2012-11-16 14:00:00
3:30 PM,59.0,50.0,72,30.12,-9999.0,ESE,9.2,-,N/A,,Clear,120,2012-11-16 14:30:00
4:00 PM,57,50,70,30.15,7,East,4.5,,,Rain,Light Rain,80,2012-11-16 15:00:00
4:00 PM,57.2,50.0,77,30.12,6.2,East,5.8,-,N/A,Rain,Light Rain,80,2012-11-16 15:00:00
4:30 PM,55.4,50.0,82,30.12,6.2,Variable,3.5,-,N/A,,Partly Cloudy,0,2012-11-16 15:30:00
5:00 PM,55.4,51.8,88,30.12,6.2,North,4.6,-,N/A,,Scattered Clouds,350,2012-11-16 16:00:00
5:30 PM,55.4,51.8,88,30.12,6.2,Variable,3.5,-,N/A,,Scattered Clouds,0,2012-11-16 16:30:00
6:00 PM,55.4,51.8,88,30.12,6.2,Variable,3.5,-,N/A,Rain,Light Rain,0,2012-11-16 17:00:00
6:30 PM,55.4,51.8,88,30.12,6.2,NNW,4.6,-,N/A,,Scattered Clouds,330,2012-11-16 17:30:00
7:00 PM,56,52,83,30.14,7,North,2.2,,,,Partly Cloudy,0,2012-11-16 18:00:00
7:00 PM,55.4,51.8,88,30.12,6.2,Variable,3.5,-,N/A,,Scattered Clouds,0,2012-11-16 18:00:00
7:30 PM,55.4,51.8,88,30.12,6.2,Variable,3.5,-,N/A,,Scattered Clouds,0,2012-11-16 18:30:00
8:00 PM,55.4,51.8,88,30.12,6.2,Variable,2.3,-,N/A,,Scattered Clouds,0,2012-11-16 19:00:00
8:30 PM,55.4,51.8,88,30.12,6.2,Variable,3.5,-,N/A,,Scattered Clouds,0,2012-11-16 19:30:00
9:00 PM,57.2,51.8,82,30.12,6.2,Variable,3.5,-,N/A,,Scattered Clouds,0,2012-11-16 20:00:00
9:30 PM,57.2,51.8,82,30.12,6.2,NNW,4.6,-,N/A,,Scattered Clouds,330,2012-11-16 20:30:00
10:00 PM,56,52,82,30.13,9,North,2.2,,,,Partly Cloudy,10,2012-11-16 21:00:00
10:00 PM,55.4,51.8,88,30.12,6.2,Variable,2.3,-,N/A,,Scattered Clouds,0,2012-11-16 21:00:00
10:30 PM,57.2,51.8,82,30.12,6.2,Variable,2.3,-,N/A,,Scattered Clouds,0,2012-11-16 21:30:00
11:00 PM,57.2,51.8,82,30.12,6.2,Variable,3.5,-,N/A,,Scattered Clouds,0,2012-11-16 22:00:00
11:30 PM,55.4,51.8,88,30.12,6.2,NNW,4.6,-,N/A,,Scattered Clouds,340,2012-11-16 22:30:00